Date String (YYYY-MM-DD hh:mm:ss) UTC,Instrument flags,Ambient pressure (hPa),Sample flow (lpm),Bypass flow (lpm),Sample temperature (°C),Ambient temperature (°C),ASC tube jacket temperature (°C),LED temperature (°C),Box temperature (°C),Sample RH (%),Span deviation,Mass concentration (μg/m³),Mass concentration (μg/m³),Mass concentration (μg/m³)
DateTimeUTC,F1_M11,P_M11,Q1_M11,Q2_M11,T1_M11,T2_M11,T3_M11,T4_M11,T5_M11,U1_M11,ZSPAN_M11,X0_M11,X2_M11,X1_M11
2022-07-25 03:00:00,,0829.9,5.00,0.00,32.2,29.1,00.0,40.4,32.8,34.6,0000.0,0009.60,0005.38,0004.57
2022-07-25 03:01:00,,0829.9,4.99,0.00,32.2,29.1,00.0,40.4,32.8,34.7,0000.0,0010.23,0005.43,0004.60
2022-07-25 03:02:00,,0829.9,5.00,0.00,32.2,28.5,00.0,40.3,32.7,34.7,0000.0,0010.46,0005.48,0004.63
2022-07-25 03:03:00,,0829.8,4.99,0.00,32.1,28.0,00.0,40.2,32.6,34.9,0000.0,0010.59,0005.50,0004.64
2022-07-25 03:04:00,,0829.9,5.01,0.00,32.0,27.8,00.0,40.2,32.4,35.0,0000.0,0010.55,0005.50,0004.65
2022-07-25 03:05:00,,0829.9,4.99,0.00,31.9,27.8,00.0,40.2,32.4,35.3,0000.0,0010.61,0005.54,0004.66
2022-07-25 03:06:00,,0829.9,5.00,0.00,32.1,27.9,00.0,40.2,32.5,34.9,0000.0,0010.49,0005.50,0004.66
2022-07-25 03:07:00,,0829.9,5.00,0.00,32.2,28.0,00.0,40.2,32.6,34.7,0000.0,0010.96,0005.46,0004.66
2022-07-25 03:08:00,,0829.8,5.00,0.00,32.3,28.1,00.0,40.2,32.5,34.6,0000.0,0011.50,0005.49,0004.68
2022-07-25 03:09:00,,0829.8,5.00,0.00,32.3,28.2,00.0,40.2,32.5,34.7,0000.0,0011.24,0005.51,0004.70
2022-07-25 03:10:00,,0829.8,5.00,0.00,32.2,28.4,00.0,40.2,32.5,34.7,0000.0,0011.16,0005.52,0004.72
2022-07-25 03:11:00,,0829.8,4.99,0.00,32.2,28.5,00.0,40.2,32.5,34.9,0000.0,0011.35,0005.50,0004.73
2022-07-25 03:12:00,,0829.8,5.02,0.00,32.2,28.5,00.0,40.2,32.5,35.0,0000.0,0011.04,0005.53,0004.74
2022-07-25 03:13:00,,0829.9,4.99,0.00,32.3,28.6,00.0,40.3,32.6,34.8,0000.0,0010.76,0005.51,0004.75
2022-07-25 03:14:00,,0829.9,5.00,0.00,32.4,28.7,00.0,40.3,32.6,34.6,0000.0,0010.67,0005.51,0004.75
2022-07-25 03:15:00,,0829.8,4.99,0.00,32.4,28.8,00.0,40.3,32.6,34.6,0000.0,0010.74,0005.52,0004.77
2022-07-25 03:16:00,,0829.9,5.01,0.00,32.4,28.8,00.0,40.3,32.6,34.6,0000.0,0010.66,0005.49,0004.78
2022-07-25 03:17:00,,0829.9,5.00,0.00,32.3,28.9,00.0,40.4,32.6,34.6,0000.0,0010.71,0005.52,0004.80
2022-07-25 03:18:00,,0829.9,5.00,0.00,32.3,28.9,00.0,40.4,32.6,34.7,0000.0,0010.36,0005.62,0004.83
2022-07-25 03:19:00,,0829.9,5.00,0.00,32.2,28.9,00.0,40.4,32.6,34.8,0000.0,0009.62,0005.62,0004.85
2022-07-25 03:20:00,,0829.9,5.00,0.00,32.2,29.0,00.0,40.4,32.6,34.9,0000.0,0009.82,0005.68,0004.87
2022-07-25 03:21:00,,0829.9,4.99,0.00,32.1,29.0,00.0,40.4,32.6,35.0,0000.0,0009.90,0005.72,0004.90
2022-07-25 03:22:00,,0829.9,5.02,0.00,32.1,29.0,00.0,40.4,32.6,35.1,0000.0,0009.75,0005.75,0004.92
2022-07-25 03:23:00,,0829.9,4.99,0.00,32.3,29.1,00.0,40.4,32.8,34.7,0000.0,0009.63,0005.74,0004.94
2022-07-25 03:24:00,,0829.9,5.00,0.00,32.4,29.0,00.0,40.4,32.8,34.5,0000.0,0009.94,0005.80,0004.96
2022-07-25 03:25:00,,0829.9,5.01,0.00,32.4,28.4,00.0,40.3,32.7,34.4,0000.0,0010.33,0005.86,0005.00
2022-07-25 03:26:00,,0829.9,4.98,0.00,32.4,27.8,00.0,40.2,32.6,34.5,0000.0,0010.38,0005.91,0005.02
2022-07-25 03:27:00,,0829.9,5.00,0.00,32.3,27.7,00.0,40.3,32.4,34.6,0000.0,0010.55,0005.96,0005.03
2022-07-25 03:28:00,,0829.8,5.01,0.00,32.1,27.7,00.0,40.3,32.3,34.9,0000.0,0010.61,0005.98,0005.05
2022-07-25 03:29:00,,0829.9,4.99,0.00,32.1,27.8,00.0,40.3,32.3,35.1,0000.0,0010.53,0005.94,0005.06
2022-07-25 03:30:00,,0829.9,5.01,0.00,32.1,27.9,00.0,40.3,32.4,35.0,0000.0,0010.61,0005.97,0005.07
2022-07-25 03:31:00,,0829.9,5.00,0.00,32.3,28.0,00.0,40.2,32.5,34.6,0000.0,0010.52,0005.95,0005.06
2022-07-25 03:32:00,,0829.9,5.01,0.00,32.4,28.2,00.0,40.2,32.5,34.4,0000.0,0010.45,0005.93,0005.04
2022-07-25 03:33:00,,0829.8,5.00,0.00,32.3,28.3,00.0,40.3,32.4,34.4,0000.0,0010.26,0005.89,0005.03
2022-07-25 03:34:00,,0829.8,4.98,0.00,32.3,28.3,00.0,40.3,32.4,34.5,0000.0,0010.22,0005.90,0005.03
2022-07-25 03:35:00,,0829.8,5.01,0.00,32.3,28.4,00.0,40.3,32.4,34.7,0000.0,0009.97,0005.89,0005.04
2022-07-25 03:36:00,,0829.8,5.00,0.00,32.2,28.5,00.0,40.3,32.4,34.8,0000.0,0009.76,0005.87,0005.03
2022-07-25 03:37:00,,0829.8,4.99,0.00,32.1,28.6,00.0,40.3,32.4,34.9,0000.0,0009.80,0005.88,0005.05
2022-07-25 03:38:00,,0829.8,5.00,0.00,32.1,28.6,00.0,40.3,32.4,35.1,0000.0,0009.67,0005.87,0005.07
2022-07-25 03:39:00,,0829.8,5.00,0.00,32.2,28.7,00.0,40.3,32.5,34.9,0000.0,0009.93,0005.86,0005.07
2022-07-25 03:40:00,,0829.8,5.00,0.00,32.3,28.7,00.0,40.3,32.6,34.6,0000.0,0010.32,0005.83,0005.06
2022-07-25 03:41:00,,0829.8,5.00,0.00,32.4,28.8,00.0,40.3,32.6,34.6,0000.0,0010.45,0005.80,0005.05
2022-07-25 03:42:00,,0829.8,5.00,0.00,32.4,28.8,00.0,40.3,32.5,34.6,0000.0,0010.57,0005.77,0005.06
2022-07-25 03:43:00,,0829.8,4.99,0.00,32.3,28.8,00.0,40.4,32.5,34.6,0000.0,0011.03,0005.83,0005.09
2022-07-25 03:44:00,,0829.8,5.00,0.00,32.3,28.9,00.0,40.4,32.5,34.6,0000.0,0011.32,0005.94,0005.11
2022-07-25 03:45:00,,0829.7,5.01,0.00,32.2,28.9,00.0,40.4,32.5,34.7,0000.0,0011.35,0005.95,0005.11
2022-07-25 03:46:00,,0829.6,5.00,0.00,32.2,28.9,00.0,40.4,32.5,34.8,0000.0,0011.46,0005.99,0005.13
2022-07-25 03:47:00,,0829.7,5.00,0.00,32.1,28.9,00.0,40.4,32.5,34.9,0000.0,0011.39,0006.03,0005.15
2022-07-25 03:48:00,,0829.6,5.00,0.00,32.0,28.9,00.0,40.4,32.5,35.0,0000.0,0011.20,0006.00,0005.16
2022-07-25 03:49:00,,0829.5,5.02,0.00,32.1,29.0,00.0,40.4,32.6,35.1,0000.0,0011.19,0006.01,0005.17
2022-07-25 03:50:00,,0829.6,4.99,0.00,32.2,29.0,00.0,40.4,32.7,34.8,0000.0,0010.88,0005.99,0005.17
2022-07-25 03:51:00,,0829.6,5.00,0.00,32.3,29.0,00.0,40.4,32.7,34.5,0000.0,0010.41,0005.99,0005.19
2022-07-25 03:52:00,,0829.9,4.99,0.00,32.4,29.0,00.0,40.4,32.7,34.4,0000.0,0010.24,0006.04,0005.22
2022-07-25 03:53:00,,0829.6,5.01,0.00,32.4,28.5,00.0,40.3,32.7,34.4,0000.0,0009.98,0006.07,0005.24
2022-07-25 03:54:00,,0829.8,5.00,0.00,32.4,27.9,00.0,40.3,32.6,34.5,0000.0,0009.45,0006.00,0005.26
2022-07-25 03:55:00,,0829.7,4.99,0.00,32.3,27.6,00.0,40.3,32.4,34.7,0000.0,0009.40,0005.98,0005.28
2022-07-25 03:56:00,,0829.6,5.00,0.00,32.1,27.7,00.0,40.3,32.3,35.0,0000.0,0009.58,0005.98,0005.31
2022-07-25 03:57:00,,0829.6,4.99,0.00,32.1,27.7,00.0,40.3,32.3,35.2,0000.0,0009.58,0005.99,0005.32
2022-07-25 03:58:00,,0829.9,5.00,0.00,32.3,27.9,00.0,40.3,32.5,34.8,0000.0,0009.63,0005.97,0005.31
2022-07-25 03:59:00,,0829.8,4.99,0.00,32.4,28.0,00.0,40.3,32.5,34.5,0000.0,0009.71,0005.96,0005.29
